Preview of NWS' New Version of Forecast
This preview is not operational and should not be used for support decisions.

Regional Weather Roundup (RWR)

Issued by National Weather Service (NWS)

                            
000
ASUS43 KBIS 180702
RWRND 

NORTH DAKOTA REGIONAL WEATHER ROUNDUP
NATIONAL WEATHER SERVICE BISMARCK ND
200 AM CDT THU JUL 18 2019

NOTE: "FAIR" INDICATES FEW OR NO CLOUDS BELOW 12,000 FEET WITH NO
SIGNIFICANT WEATHER AND/OR OBSTRUCTIONS TO VISIBILITY.


NDZ001>003-009>011-017-180800-
NORTHWEST NORTH DAKOTA
  
CITY           SKY/WX    TMP DP  RH WIND       PRES   REMARKS
WILLISTON      MOCLDY    67  61  81 SW3       29.65F                  
MINOT          CLEAR     62  58  86 CALM      29.65F                  
MINOT AFB      CLEAR     60  58  93 SW3       29.64F                  
$$
 
NDZ018>021-031>035-040>046-180800-
SOUTHWEST NORTH DAKOTA
  
CITY           SKY/WX    TMP DP  RH WIND       PRES   REMARKS
BISMARCK       TSTM      64  60  87 VRB3      29.67F                  
DICKINSON      MOCLDY    61  59  93 S8        29.71F                  
GARRISON         N/A     60  59  96 SW5       29.67F                  
HETTINGER ARPT MOCLDY    62  57  83 MISG      29.77S                  
$$
 
NDZ004>008-012>016-024-026-027-054-180800-
NORTHEAST NORTH DAKOTA
  
CITY           SKY/WX    TMP DP  RH WIND       PRES   REMARKS
GRAND FORKS    CLOUDY    65  62  90 S5        29.62F                  
DEVILS LAKE    CLOUDY    72  64  76 SW9       29.65F                  
$$
 
NDZ022-023-025-028>030-036>039-047>053-180800-
SOUTHEAST NORTH DAKOTA
  
CITY           SKY/WX    TMP DP  RH WIND       PRES   REMARKS
FARGO          CLOUDY    70  67  90 CALM      29.67F                  
JAMESTOWN      MOCLDY    70  66  87 S8        29.67F                  
$$